Regional Weather Roundup
Issued by NWS Goodland, KS

Home | Current Version | Previous Version | Text Only | Print | Product List | Glossary On
Versions: 1 2 3 4 5 6 7 8 9 10 11 12 13 14 15 16 17 18 19 20 21 22 23 24 25 26 27 28 29 30 31 32 33 34 35 36 37 38 39 40 41 42 43 44 45 46 47 48 49 50
000
ASUS43 KGLD 251508
RWRGLD

GOODLAND FORECAST AREA HOURLY WEATHER ROUNDUP
NATIONAL WEATHER SERVICE GOODLAND KS
900 AM MDT MON SEP 25 2017

...OFFICIAL OBSERVATIONS...

CITY           SKY/WX    TMP DP  RH WIND       PRES   REMARKS
GOODLAND KS    CLOUDY    49  47  93 N15       30.04R
HILL CITY KS   CLOUDY    54  53  97 N14       30.01R
IMPERIAL NEB   LGT RAIN  48  46  93 NE14      30.07F
MCCOOK NEB     RAIN      49  49 100 NE17      30.02F FOG
AKRON CO       CLOUDY    44  42  93 NE14      30.08F FOG
BURLINGTON CO  CLOUDY    48  46  93 N15       30.06R
LIMON CO         N/A    N/A N/A N/A MISG      30.09R
$$

...UNOFFICIAL OBSERVATIONS...

CITY           SKY/WX    TMP DP  RH WIND       PRES   REMARKS
LENORA KS        N/A     51  32  48 MISG        N/A
NORTON KS      CLOUDY    50  46  87 NW15G22   30.01R
SHARON SPRINGS   N/A     50  49  97 N9G18       N/A
KIT CARSON CO    N/A     48  45  90 MISG        N/A
YUMA CO        CLOUDY    43  43 100 N13       30.08R
$$



USA.gov is the U.S. government's official web portal to all federal, state and local government web resources and services.